This is the latest recevied weather packets stored in our database for station/object K6CEG. If no packets are shown the sender has not sent any weather packets the latest 10 day(s).
| Time | Temp. | Humidity | Pressure | Rain* | Wind** | Luminosity | Snow |
|---|---|---|---|---|---|---|---|
| 1787880026 | 36.67° C | 22% | 1010.9 hPa | 0 mm | - | 47 W/m² | - |
| 1787879721 | 37.22° C | 21% | 1010.9 hPa | 0 mm | - | 55 W/m² | - |
| 1787879416 | 37.22° C | 21% | 1010.8 hPa | 0 mm | - | 59 W/m² | - |
| 1787879112 | 37.78° C | 21% | 1011 hPa | 0 mm | - | 46 W/m² | - |
| 1787878809 | 38.33° C | 20% | 1010.9 hPa | 0 mm | - | 69 W/m² | - |
| 1787878508 | 38.89° C | 20% | 1011 hPa | 0 mm | - | 101 W/m² | - |
| 1787878203 | 38.33° C | 20% | 1010.9 hPa | 0 mm | - | 103 W/m² | - |
| 1787877899 | 37.78° C | 20% | 1010.9 hPa | 0 mm | - | 93 W/m² | - |
| 1787877600 | 37.78° C | 20% | 1010.8 hPa | 0 mm | - | 79 W/m² | - |
| 1787877290 | 37.78° C | 21% | 1010.8 hPa | 0 mm | - | 75 W/m² | - |
| 1787876989 | 37.78° C | 20% | 1010.8 hPa | 0 mm | - | 69 W/m² | - |
| 1787876685 | 38.33° C | 21% | 1010.6 hPa | 0 mm | - | 60 W/m² | - |
| 1787876380 | 38.33° C | 21% | 1010.8 hPa | 0 mm | - | 86 W/m² | - |
| 1787876079 | 38.33° C | 22% | 1010.8 hPa | 0 mm | - | 62 W/m² | - |
| 1787875774 | 38.89° C | 21% | 1010.8 hPa | 0 mm | - | 98 W/m² | - |
| 1787875473 | 39.44° C | 21% | 1010.9 hPa | 0 mm | - | 182 W/m² | - |
| 1787875172 | 38.89° C | 22% | 1010.6 hPa | 0 mm | - | 310 W/m² | - |
| 1787874867 | 38.89° C | 24% | 1010.8 hPa | 0 mm | - | 173 W/m² | - |
| 1787874566 | 38.89° C | 25% | 1010.9 hPa | 0 mm | - | 155 W/m² | - |
| 1787874260 | 38.89° C | 25% | 1010.8 hPa | 0 mm | - | 171 W/m² | - |
| 1787873955 | 38.89° C | 26% | 1011.1 hPa | 0 mm | - | 187 W/m² | - |
| 1787873655 | 38.33° C | 28% | 1011 hPa | 0 mm | - | 158 W/m² | - |
| 1787873350 | 38.33° C | 26% | 1011 hPa | 0 mm | - | 143 W/m² | - |
| 1787873049 | 37.78° C | 30% | 1011.3 hPa | 0 mm | - | 161 W/m² | - |
| 1787872744 | 37.78° C | 33% | 1011.4 hPa | 0 mm | - | 187 W/m² | - |
* Rain latest hour (hover to see other rain measurements)
** Current wind speed in m/s (hover to see current wind gust speed)